EW1440 Weather Reports


Display with metric or nautical units.
time (UTC)temp
F
wind
direction
speed
MPH
gust
MPH
rain 1hr
in
rain 24hr
in
rain mn
in
humidity
%
barometer
mb
20260903175531 98 112 6.0 15.0 0.00 0.00 0.00 45 1013.5
20260903175038 98 143 4.0 15.0 0.00 0.00 0.00 44 1013.5
20260903174551 98 180 5.0 15.0 0.00 0.00 0.00 44 1013.5
20260903174035 98 144 6.0 14.0 0.00 0.00 0.00 47 1013.6
20260903173534 97 137 5.0 11.0 0.00 0.00 0.00 48 1013.7
20260903173059 97 122 4.0 13.0 0.00 0.00 0.00 48 1013.7
20260903172536 96 90 5.0 13.0 0.00 0.00 0.00 50 1013.8
20260903172033 96 154 4.0 13.0 0.00 0.00 0.00 50 1013.8
20260903171557 96 128 6.0 15.0 0.00 0.00 0.00 50 1014.0
20260903171033 96 113 6.0 15.0 0.00 0.00 0.00 52 1014.0
20260903170533 95 113 7.0 11.0 0.00 0.00 0.00 52 1014.0
20260903170103 94 234 4.0 11.0 0.00 0.00 0.00 54 1014.1
20260903165534 94 93 4.0 11.0 0.00 0.00 0.00 56 1014.1
20260903165036 93 153 2.0 13.0 0.00 0.00 0.00 57 1014.3
20260903164555 93 104 7.0 13.0 0.00 0.00 0.00 57 1014.2
20260903164033 92 84 5.0 11.0 0.00 0.00 0.00 59 1014.2
20260903163530 91 120 3.0 11.0 0.00 0.00 0.00 61 1014.4
20260903163059 90 137 6.0 11.0 0.00 0.00 0.00 62 1014.4
20260903162532 90 218 4.0 13.0 0.00 0.00 0.00 60 1014.4
20260903162033 90 274 7.0 13.0 0.00 0.00 0.00 62 1014.4
20260903161604 90 202 5.0 12.0 0.00 0.00 0.00 63 1014.4
20260903161036 90 157 5.0 12.0 0.00 0.00 0.00 64 1014.4
20260903160532 89 129 6.0 12.0 0.00 0.00 0.00 65 1014.4
20260903160059 88 117 4.0 12.0 0.00 0.00 0.00 67 1014.4
20260903155531 87 131 5.0 12.0 0.00 0.00 0.00 67 1014.4
20260903155031 87 154 2.0 10.0 0.00 0.00 0.00 70 1014.5
20260903154602 86 226 3.0 10.0 0.00 0.00 0.00 71 1014.5
20260903154036 85 184 3.0 8.0 0.00 0.00 0.00 72 1014.5
20260903153536 85 200 4.0 13.0 0.00 0.00 0.00 71 1014.4
20260903153116 86 145 5.0 13.0 0.00 0.00 0.00 70 1014.5
20260903152533 87 137 6.0 15.0 0.00 0.00 0.00 72 1014.6
20260903152033 86 180 3.0 15.0 0.00 0.00 0.00 72 1014.6
20260903151615 86 96 5.0 10.0 0.00 0.00 0.00 71 1014.5
20260903151034 85 162 2.0 7.0 0.00 0.00 0.00 75 1014.6
20260903150537 83 223 3.0 7.0 0.00 0.00 0.00 77 1014.6
20260903150109 83 202 3.0 10.0 0.00 0.00 0.00 77 1014.7
20260903145537 83 146 4.0 10.0 0.00 0.00 0.00 77 1014.6
20260903145031 83 160 4.0 9.0 0.00 0.00 0.00 77 1014.7
20260903144549 84 207 4.0 11.0 0.00 0.00 0.00 77 1014.6
20260903144034 84 158 5.0 12.0 0.00 0.00 0.00 78 1014.6
20260903143534 83 143 6.0 12.0 0.00 0.00 0.00 80 1014.7
20260903143107 82 141 3.0 9.0 0.00 0.00 0.00 80 1014.8
20260903142532 82 118 2.0 9.0 0.00 0.00 0.00 81 1014.7
20260903142033 82 160 3.0 10.0 0.00 0.00 0.00 83 1014.8
20260903141558 81 161 4.0 10.0 0.00 0.00 0.00 83 1014.8
20260903141034 81 189 6.0 10.0 0.00 0.00 0.00 83 1014.7
20260903140532 81 140 4.0 11.0 0.00 0.00 0.00 84 1014.8
20260903140059 80 225 5.0 11.0 0.00 0.00 0.00 86 1014.7
20260903135533 80 193 5.0 9.0 0.00 0.00 0.00 88 1014.7
20260903135033 79 197 5.0 9.0 0.00 0.00 0.00 88 1014.8
20260903134605 79 112 4.0 8.0 0.00 0.00 0.00 89 1014.9
20260903134036 79 145 5.0 8.0 0.00 0.00 0.00 89 1015.0
20260903133534 79 138 2.0 6.0 0.00 0.00 0.00 89 1014.9
20260903133102 79 143 1.0 5.0 0.00 0.00 0.00 89 1014.8
20260903132532 78 115 1.0 4.0 0.00 0.00 0.00 89 1014.8
20260903132032 78 0 1.0 4.0 0.00 0.00 0.00 89 1014.8
20260903131556 78 124 1.0 4.0 0.00 0.00 0.00 89 1014.7
20260903131037 78 134 1.0 3.0 0.00 0.00 0.00 89 1014.8
20260903130533 78 134 1.0 3.0 0.00 0.00 0.00 89 1014.8
20260903130055 78 0 0.0 2.0 0.00 0.00 0.00 89 1014.7
20260903125535 78 0 0.0 5.0 0.00 0.00 0.00 88 1014.6
20260903125036 77 0 0.0 5.0 0.00 0.00 0.00 88 1014.7
20260903124601 77 153 1.0 4.0 0.00 0.00 0.00 88 1014.7
20260903124036 77 153 1.0 3.0 0.00 0.00 0.00 88 1014.4
20260903123532 77 153 1.0 4.0 0.00 0.00 0.00 88 1014.4
20260903123058 77 153 1.0 4.0 0.00 0.00 0.00 88 1014.4
20260903122532 77 171 1.0 5.0 0.00 0.00 0.00 88 1014.3
20260903122034 77 171 2.0 5.0 0.00 0.00 0.00 88 1014.3
20260903121557 78 151 1.0 5.0 0.00 0.00 0.00 87 1014.3
20260903121035 78 151 2.0 5.0 0.00 0.00 0.00 87 1014.2
20260903120537 78 156 1.0 4.0 0.00 0.00 0.00 87 1014.2
20260903120054 78 168 1.0 4.0 0.00 0.00 0.00 87 1014.2
20260903115535 78 143 0.0 2.0 0.00 0.00 0.00 87 1014.1
20260903115033 78 0 0.0 2.0 0.00 0.00 0.00 87 1014.2
20260903114558 78 0 0.0 4.0 0.00 0.00 0.00 87 1014.2
20260903114038 78 0 0.0 4.0 0.00 0.00 0.00 87 1014.2
20260903113534 78 143 0.0 2.0 0.00 0.00 0.00 87 1014.2
20260903113059 78 143 0.0 3.0 0.00 0.00 0.00 87 1014.1
20260903112534 78 143 0.0 4.0 0.00 0.00 0.00 87 1014.2
20260903112033 78 143 1.0 4.0 0.00 0.00 0.00 87 1014.1
20260903111606 78 122 1.0 3.0 0.00 0.00 0.00 86 1014.0
20260903111033 78 0 1.0 3.0 0.00 0.00 0.00 87 1014.1
20260903110534 78 122 1.0 3.0 0.00 0.00 0.00 86 1014.2
20260903110059 78 122 1.0 4.0 0.00 0.00 0.00 86 1014.2
20260903105535 78 122 1.0 4.0 0.00 0.00 0.00 87 1014.1
20260903105035 78 143 1.0 4.0 0.00 0.00 0.00 87 1014.1
20260903104620 78 182 1.0 5.0 0.00 0.00 0.00 87 1014.1
20260903104032 79 167 1.0 5.0 0.00 0.00 0.00 87 1014.0
20260903103532 79 168 1.0 5.0 0.00 0.00 0.00 87 1014.0
20260903103104 79 154 2.0 4.0 0.00 0.00 0.00 87 1014.1
20260903102534 79 164 2.0 4.0 0.00 0.00 0.00 86 1014.0
20260903102033 79 152 1.0 4.0 0.00 0.00 0.00 86 1014.0
20260903101555 79 158 1.0 4.0 0.00 0.00 0.00 86 1014.1
20260903101037 79 0 1.0 4.0 0.00 0.00 0.00 86 1014.1
20260903100533 79 168 1.0 7.0 0.00 0.00 0.00 86 1014.2
20260903100100 79 147 1.0 7.0 0.00 0.00 0.00 86 1014.1
20260903095535 79 160 4.0 9.0 0.00 0.00 0.00 86 1014.0
20260903095033 79 184 2.0 9.0 0.00 0.00 0.00 86 1013.9
20260903094557 79 147 3.0 10.0 0.00 0.00 0.00 86 1013.9
20260903094037 79 162 2.0 10.0 0.00 0.00 0.00 86 1013.9
20260903093534 79 180 3.0 10.0 0.00 0.00 0.00 86 1013.9
20260903093103 79 159 4.0 10.0 0.00 0.00 0.00 86 1014.0
20260903092532 79 162 3.0 6.0 0.00 0.00 0.00 86 1014.0
20260903092035 79 153 3.0 9.0 0.00 0.00 0.00 86 1014.0
20260903091555 79 153 3.0 9.0 0.00 0.00 0.00 86 1014.0
20260903091035 79 178 2.0 7.0 0.00 0.00 0.00 86 1014.0
20260903090533 79 187 2.0 7.0 0.00 0.00 0.00 85 1013.9
20260903090100 79 137 2.0 7.0 0.00 0.00 0.00 85 1014.0
20260903085535 79 150 3.0 7.0 0.00 0.00 0.00 85 1013.9
20260903085032 79 178 3.0 5.0 0.00 0.00 0.00 85 1013.8
20260903084559 79 166 2.0 5.0 0.00 0.00 0.00 84 1013.9
20260903084034 79 148 2.0 5.0 0.00 0.00 0.00 84 1013.9
20260903083533 79 126 2.0 6.0 0.00 0.00 0.00 83 1013.9
20260903083102 79 151 3.0 6.0 0.00 0.00 0.00 82 1013.9
20260903082534 79 147 3.0 6.0 0.00 0.00 0.00 81 1013.9
20260903082033 79 141 3.0 6.0 0.00 0.00 0.00 81 1014.0
20260903081615 79 145 2.0 5.0 0.00 0.00 0.00 80 1013.9
20260903081032 79 151 2.0 4.0 0.00 0.00 0.00 80 1013.9
20260903080537 79 0 1.0 5.0 0.00 0.00 0.00 80 1013.9
20260903080056 79 124 1.0 5.0 0.00 0.00 0.00 80 1014.0
20260903075536 80 130 2.0 7.0 0.00 0.00 0.00 80 1014.0
20260903075034 80 114 3.0 7.0 0.00 0.00 0.00 79 1013.9
20260903074557 80 108 3.0 7.0 0.00 0.00 0.00 79 1014.0
20260903074034 80 116 3.0 8.0 0.00 0.00 0.00 78 1014.0
20260903073533 80 126 2.0 8.0 0.00 0.00 0.00 78 1014.0
20260903073101 80 108 4.0 8.0 0.00 0.00 0.00 78 1014.0
20260903072533 80 128 3.0 10.0 0.00 0.00 0.00 77 1014.0
20260903072035 81 93 3.0 10.0 0.00 0.00 0.00 77 1014.1
20260903071557 81 118 6.0 10.0 0.00 0.00 0.00 76 1014.1
20260903071034 81 119 3.0 7.0 0.00 0.00 0.00 76 1014.0
20260903070535 81 76 3.0 7.0 0.00 0.00 0.00 75 1014.1
20260903065533 81 120 3.0 9.0 0.00 0.00 0.00 75 1014.0
20260903065033 81 133 3.0 10.0 0.00 0.00 0.00 75 1013.9
20260903064553 82 126 4.0 10.0 0.00 0.00 0.00 75 1013.8
20260903064033 82 145 4.0 9.0 0.00 0.00 0.00 75 1013.8
20260903063535 82 167 6.0 12.0 0.00 0.00 0.00 74 1013.8
20260903063106 82 141 4.0 12.0 0.00 0.00 0.00 74 1013.8
20260903062533 82 165 5.0 11.0 0.00 0.00 0.00 74 1013.9
20260903062033 82 144 4.0 13.0 0.00 0.00 0.00 74 1014.0
20260903061556 82 146 5.0 14.0 0.00 0.00 0.00 74 1014.0
20260903061032 82 176 5.0 14.0 0.00 0.00 0.00 74 1014.1
20260903060533 83 178 6.0 15.0 0.00 0.00 0.00 73 1014.2
20260903060054 83 123 7.0 16.0 0.00 0.00 0.00 73 1014.1
20260903055535 83 152 8.0 16.0 0.00 0.00 0.00 73 1014.0
20260903055034 83 150 5.0 15.0 0.00 0.00 0.00 73 1014.0
20260903054601 83 146 8.0 15.0 0.00 0.00 0.00 72 1014.0
20260903054035 83 138 6.0 12.0 0.00 0.00 0.00 72 1013.9
20260903053533 84 149 6.0 12.0 0.00 0.00 0.00 72 1013.9
20260903053059 84 150 5.0 12.0 0.00 0.00 0.00 71 1013.9
20260903052533 84 130 7.0 13.0 0.00 0.00 0.00 71 1013.9
20260903052033 84 125 6.0 13.0 0.00 0.00 0.00 71 1014.0
20260903051550 84 177 5.0 11.0 0.00 0.00 0.00 70 1014.0
20260903051034 84 154 6.0 12.0 0.00 0.00 0.00 70 1013.9
20260903050532 85 155 7.0 14.0 0.00 0.00 0.00 70 1013.8
20260903045534 85 140 7.0 14.0 0.00 0.00 0.00 69 1013.8
20260903045118 85 157 8.0 14.0 0.00 0.00 0.00 68 1013.9
20260903044557 85 123 8.0 15.0 0.00 0.00 0.00 67 1013.8
20260903044033 85 138 8.0 15.0 0.00 0.00 0.00 67 1013.8
20260903043534 85 140 7.0 14.0 0.00 0.00 0.00 66 1013.7
20260903043058 86 123 7.0 14.0 0.00 0.00 0.00 66 1013.6
20260903042534 86 135 8.0 14.0 0.00 0.00 0.00 65 1013.5
20260903042034 86 199 6.0 14.0 0.00 0.00 0.00 65 1013.6
20260903041552 86 150 5.0 12.0 0.00 0.00 0.00 64 1013.5
20260903041033 86 132 6.0 15.0 0.00 0.00 0.00 64 1013.4
20260903040535 86 191 6.0 16.0 0.00 0.00 0.00 64 1013.4
20260903035534 85 162 7.0 15.0 0.00 0.00 0.00 63 1013.3
20260903035032 85 170 5.0 15.0 0.00 0.00 0.00 63 1013.2
20260903034555 84 151 7.0 15.0 0.00 0.00 0.00 61 1013.3
20260903034035 84 142 6.0 11.0 0.00 0.00 0.00 60 1013.1
20260903033533 84 128 5.0 11.0 0.00 0.00 0.00 58 1013.0
20260903033059 83 145 5.0 12.0 0.00 0.00 0.00 57 1012.9
20260903032535 83 145 7.0 15.0 0.00 0.00 0.00 56 1012.8
20260903032032 82 125 7.0 17.0 0.00 0.00 0.00 56 1012.7
20260903031557 81 131 8.0 17.0 0.00 0.00 0.00 56 1012.7
20260903031037 81 163 2.0 5.0 0.00 0.00 0.00 55 1012.4
20260903030533 81 158 2.0 5.0 0.00 0.00 0.00 55 1012.3
20260903030126 81 175 2.0 4.0 0.00 0.00 0.00 55 1012.2
20260903025534 82 175 1.0 2.0 0.00 0.00 0.00 54 1012.3
20260903025032 82 175 1.0 2.0 0.00 0.00 0.00 54 1012.2
20260903024555 82 175 0.0 2.0 0.00 0.00 0.00 53 1012.0
20260903024034 83 0 0.0 2.0 0.00 0.00 0.00 52 1012.2
20260903023539 83 175 1.0 2.0 0.00 0.00 0.00 52 1012.0
20260903023054 84 175 0.0 2.0 0.00 0.00 0.00 52 1012.0
20260903022534 84 175 0.0 2.0 0.00 0.00 0.00 51 1011.9
20260903022036 85 175 1.0 2.0 0.00 0.00 0.00 50 1011.8
20260903021600 85 175 0.0 1.0 0.00 0.00 0.00 49 1011.7
20260903021035 86 175 0.0 2.0 0.00 0.00 0.00 49 1011.7
20260903020533 87 0 0.0 2.0 0.00 0.00 0.00 48 1011.7
20260903020105 87 175 0.0 2.0 0.00 0.00 0.00 47 1011.7
20260903015534 88 175 1.0 2.0 0.00 0.00 0.00 47 1011.7
20260903015034 88 175 0.0 2.0 0.00 0.00 0.00 46 1011.6
20260903014604 89 175 0.0 2.0 0.00 0.00 0.00 46 1011.5
20260903014035 89 0 0.0 3.0 0.00 0.00 0.00 45 1011.5
20260903013533 90 0 0.0 3.0 0.00 0.00 0.00 45 1011.5
20260903013057 91 175 1.0 3.0 0.00 0.00 0.00 45 1011.4
20260903012533 91 152 1.0 3.0 0.00 0.00 0.00 44 1011.4
20260903012033 92 152 2.0 3.0 0.00 0.00 0.00 44 1011.3
20260903011604 92 152 2.0 3.0 0.00 0.00 0.00 43 1011.3
20260903011033 93 152 1.0 3.0 0.00 0.00 0.00 42 1011.2
20260903010532 93 152 1.0 4.0 0.00 0.00 0.00 41 1011.3
20260903010057 94 152 1.0 5.0 0.00 0.00 0.00 39 1011.2
20260903005535 94 170 2.0 5.0 0.00 0.00 0.00 39 1011.2
20260903005037 95 166 2.0 5.0 0.00 0.00 0.00 39 1011.3
20260903004604 95 160 2.0 5.0 0.00 0.00 0.00 38 1011.3
20260903004033 95 158 2.0 5.0 0.00 0.00 0.00 38 1011.3
20260903003533 96 159 2.0 6.0 0.00 0.00 0.00 38 1011.3
20260903003049 96 138 2.0 8.0 0.00 0.00 0.00 37 1011.3
20260903002534 96 139 3.0 8.0 0.00 0.00 0.00 37 1011.3
20260903002033 96 129 4.0 8.0 0.00 0.00 0.00 37 1011.3
20260903001609 96 138 4.0 10.0 0.00 0.00 0.00 36 1011.4
20260903001032 96 157 3.0 10.0 0.00 0.00 0.00 36 1011.3
20260903000533 97 119 4.0 8.0 0.00 0.00 0.00 35 1011.3
20260903000104 97 166 3.0 11.0 0.00 0.00 0.00 35 1011.4
20260902235534 97 87 4.0 11.0 0.00 0.00 0.00 35 1011.3
20260902235036 98 130 2.0 8.0 0.00 0.00 0.00 34 1011.3
20260902234553 98 183 3.0 8.0 0.00 0.00 0.00 33 1011.4
20260902234034 98 162 4.0 9.0 0.00 0.00 0.00 34 1011.4
20260902233534 98 168 4.0 10.0 0.00 0.00 0.00 34 1011.5
20260902233103 99 154 5.0 12.0 0.00 0.00 0.00 32 1011.5
20260902232534 99 131 4.0 12.0 0.00 0.00 0.00 34 1011.5
20260902232033 99 94 4.0 11.0 0.00 0.00 0.00 33 1011.6
20260902231600 99 175 6.0 11.0 0.00 0.00 0.00 33 1011.6
20260902231033 99 168 5.0 11.0 0.00 0.00 0.00 33 1011.5
20260902230534 99 199 5.0 10.0 0.00 0.00 0.00 33 1011.5
20260902230057 99 89 4.0 9.0 0.00 0.00 0.00 35 1011.7
20260902225537 98 89 3.0 8.0 0.00 0.00 0.00 33 1011.7
20260902225037 99 116 1.0 12.0 0.00 0.00 0.00 35 1011.7
20260902224554 101 74 6.0 12.0 0.00 0.00 0.00 32 1011.7
20260902224034 102 112 5.0 12.0 0.00 0.00 0.00 31 1011.8
20260902223534 102 133 4.0 11.0 0.00 0.00 0.00 31 1011.8
20260902223051 103 133 5.0 15.0 0.00 0.00 0.00 31 1011.7
20260902222534 103 216 4.0 15.0 0.00 0.00 0.00 30 1011.7
20260902222036 103 125 6.0 13.0 0.00 0.00 0.00 31 1011.7
20260902221613 103 130 5.0 12.0 0.00 0.00 0.00 32 1011.8
20260902221034 103 102 6.0 11.0 0.00 0.00 0.00 31 1011.8
20260902220533 103 112 4.0 15.0 0.00 0.00 0.00 30 1011.8
20260902215534 103 135 6.0 16.0 0.00 0.00 0.00 31 1011.9
20260902215034 105 116 9.0 16.0 0.00 0.00 0.00 30 1011.9
20260902214553 105 108 3.0 15.0 0.00 0.00 0.00 32 1011.9
20260902214035 105 81 8.0 15.0 0.00 0.00 0.00 30 1011.9
20260902213533 105 115 5.0 15.0 0.00 0.00 0.00 30 1012.0
20260902213055 105 155 7.0 15.0 0.00 0.00 0.00 30 1012.0
20260902212533 105 72 4.0 12.0 0.00 0.00 0.00 31 1011.9
20260902212033 105 54 3.0 12.0 0.00 0.00 0.00 31 1012.0
20260902211600 105 89 6.0 12.0 0.00 0.00 0.00 32 1012.1
20260902211032 105 128 6.0 12.0 0.00 0.00 0.00 33 1012.2
20260902210534 104 154 5.0 11.0 0.00 0.00 0.00 32 1012.2
20260902210056 104 83 3.0 8.0 0.00 0.00 0.00 34 1012.3
20260902205532 103 164 4.0 12.0 0.00 0.00 0.00 33 1012.4
20260902205033 102 54 3.0 12.0 0.00 0.00 0.00 34 1012.4
20260902204611 101 135 6.0 12.0 0.00 0.00 0.00 35 1012.6
20260902204034 100 202 6.0 11.0 0.00 0.00 0.00 35 1012.7
20260902203535 99 104 1.0 9.0 0.00 0.00 0.00 37 1012.7
20260902203055 100 98 3.0 10.0 0.00 0.00 0.00 35 1012.8
20260902202533 99 5 1.0 10.0 0.00 0.00 0.00 37 1012.9
20260902202033 99 130 6.0 10.0 0.00 0.00 0.00 37 1013.0
20260902201557 97 101 5.0 10.0 0.00 0.00 0.00 39 1013.1
20260902201034 97 96 3.0 8.0 0.00 0.00 0.00 38 1013.2
20260902200535 98 94 3.0 9.0 0.00 0.00 0.00 40 1013.2
20260902200054 97 190 4.0 12.0 0.00 0.00 0.00 39 1013.5
20260902195536 99 122 4.0 13.0 0.00 0.00 0.00 36 1013.5
20260902195033 102 202 7.0 13.0 0.00 0.00 0.00 35 1013.6
20260902194559 101 74 2.0 11.0 0.00 0.00 0.00 36 1013.6
20260902194033 100 70 3.0 16.0 0.00 0.00 0.00 36 1013.7
20260902193533 99 105 7.0 16.0 0.00 0.00 0.00 37 1013.8
20260902193102 98 86 8.0 14.0 0.00 0.00 0.00 39 1013.8
20260902192532 99 135 6.0 14.0 0.00 0.00 0.00 39 1013.9
20260902192033 98 103 7.0 12.0 0.00 0.00 0.00 41 1014.0
20260902191604 97 96 5.0 12.0 0.00 0.00 0.00 42 1014.1
20260902191034 96 216 5.0 12.0 0.00 0.00 0.00 44 1014.1
20260902190532 95 206 4.0 8.0 0.00 0.00 0.00 44 1014.1
20260902185533 99 251 1.0 11.0 0.00 0.00 0.00 40 1014.4
20260902185035 100 110 5.0 24.0 0.00 0.00 0.00 39 1014.6
20260902184555 99 166 6.0 24.0 0.00 0.00 0.00 41 1014.6
20260902184034 99 50 3.0 11.0 0.00 0.00 0.00 41 1014.6
20260902183533 98 147 2.0 11.0 0.00 0.00 0.00 42 1014.7
20260902183139 96 199 6.0 11.0 0.00 0.00 0.00 43 1014.9
20260902182533 94 195 4.0 9.0 0.00 0.00 0.00 46 1015.0
20260902182035 94 234 4.0 11.0 0.00 0.00 0.00 44 1015.0
20260902181610 98 0 2.0 12.0 0.00 0.00 0.00 41 1015.0
20260902181034 99 222 5.0 12.0 0.00 0.00 0.00 40 1015.2
20260902180532 99 206 8.0 12.0 0.00 0.00 0.00 41 1015.3
20260902180105 98 224 5.0 10.0 0.00 0.00 0.00 44 1015.4